sat.trackr.live / text

‹ back to catalog

STARLINK-30072

NORAD 57501 · 2023-113G

PAYLOAD ACTIVE UNKNOWN

§ Identity

Operator
Country
US
Launch date
2023-08-07
Launch site
AFETR
Launch vehicle
Mass (kg)
RCS (m²)

Purposes: comms

External: N2YO · Heavens-Above · Gunter

§ Orbital elements

Epoch: 2026-05-25T03:18:38.434176Z

Period
94.27 min
Inclination
43.0013°
Eccentricity
0.0001387
Mean motion
15.27581592 rev/d
Perigee alt
482.1 km
Apogee alt
484.0 km
Semi-major
6,861.2 km
B*
4.6272e-6
RAAN
304.6009°
Arg perigee
273.9639°
Mean anomaly
86.1054°
Rev number
15,525

§ Raw data

STARLINK-300721 57501U 23113G   26145.13794484 -.00000135  00000+0  46272-5 0  99912 57501  43.0013 304.6009 0001387 273.9639  86.1054 15.27581592155258

JSON: /api/v1/satellites/57501 · /tle

For live sub-satellite position, see the globe view (requires WebGL).

§ Visibility from observer

Set your observer location to see the next 7 days of passes ≥ 10°. The values pass through the URL so the page stays shareable.

No JS? Fill the form by hand. The geolocation button needs JavaScript.